#timestamp,LO_Frequency,Hit,StdDev 
1706763615.2,286046998.1,N
1706763635.9,286047001.2,N
1706763655.7,286046998.3,N
1706763675.6,286046998.9,N
1706763695.4,286046998.1,N
1706763715.2,286046998.6,N
1706763735.1,286047000.9,N
1706763736.0,286047000.9,N
1706763755.8,286046998.2,N
1706763775.7,286047000.9,N
1706763795.5,286047000.6,N
1706763815.3,286047002.5,N
1706763835.2,286047002.5,N
1706763855.0,286047000.9,N
1706763855.9,286047000.9,N
1706763875.7,286047000.0,N
1706763895.6,286046998.8,N
1706763915.4,286046998.7,N
1706763935.3,286047000.5,N
1706763955.1,286046998.2,N
1706763956.0,286046998.2,N
1706763975.8,286046998.5,N
1706763995.7,286047001.0,N
1706764015.5,286047002.5,N
1706764035.3,286047001.7,N
1706764055.2,286047004.4,N
1706764075.0,286047001.8,N
1706764075.9,286047001.8,N
1706764095.8,286047003.9,N
1706764115.6,286047001.9,N
1706764135.4,286047001.4,N
1706764155.3,286047002.6,N
1706764175.1,286047000.2,N
1706764195.8,286046998.1,N
1706764215.7,286046998.2,N
1706764235.5,286046998.7,N
1706764255.4,286046996.8,N
1706764275.2,286046997.3,N
1706764295.0,286046995.2,N
1706764295.9,286046995.2,N
1706764315.8,286046993.3,N
1706764335.6,286046996.3,N
1706764355.4,286046993.5,N
1706764375.3,286046994.1,N
1706764395.1,286046992.3,N
1706764415.9,286046990.9,N
1706764435.7,286046988.8,Y
1706764455.5,286046991.0,P
1706764475.4,286046991.4,N
1706764495.2,286046988.8,P
1706764515.1,286046988.7,Y
1706764516.0,286046988.7,P
1706764535.8,286046998.0,N
1706764555.6,286046998.0,N
1706764575.5,286046991.8,N
1706764595.3,286046992.9,N
1706764615.1,286046990.3,N
1706764635.9,286046989.4,Y
1706764655.7,286046996.4,P
1706764675.6,286046993.4,P
1706764695.4,286046992.3,P
1706764715.2,286046992.4,Y
1706764735.1,286046997.2,P
1706764736.0,286046997.2,N
1706764755.8,286046998.0,N
1706764775.7,286046995.2,N
1706764795.5,286046996.3,N
1706764815.3,286046994.7,Y
1706764835.2,286046994.9,P
1706764855.0,286046996.3,P
1706764855.9,286046996.3,P
1706764875.8,286046996.3,Y
1706764895.6,286046999.1,P
1706764915.4,286046997.3,N
1706764935.3,286046995.9,P
1706764955.1,286046994.2,Y
1706764975.9,286046995.1,P
1706764995.7,286046996.1,P
1706765015.5,286046996.2,P
1706765035.4,286046995.1,Y
1706765055.2,286046996.7,P
1706765075.0,286046997.1,P
1706765076.0,286046997.1,P
1706765095.8,286046995.1,Y
1706765115.6,286046998.8,P
1706765135.5,286046999.0,N
1706765155.3,286046996.6,P
1706765175.2,286046995.4,Y
1706765195.9,286046999.6,P
1706765215.7,286046997.0,P
1706765235.6,286046995.5,P
1706765255.4,286046993.7,Y
1706765275.2,286046995.0,P
1706765295.1,286046994.9,P
1706765296.0,286046994.9,P
1706765315.8,286046994.1,Y
1706765335.7,286046996.5,P
1706765355.5,286046995.7,P
1706765375.3,286046994.9,P
1706765395.2,286046996.1,Y
1706765415.0,286046999.2,P
1706765415.9,286046999.2,N
1706765435.8,286046997.4,N
1706765455.6,286046999.1,N
1706765475.4,286046999.3,N
1706765495.3,286046997.7,N
1706765515.1,286046996.2,Y
1706765535.9,286046995.3,P
1706765555.7,286046993.6,P
1706765575.5,286046996.2,N
1706765595.4,286046994.1,Y
1706765615.2,286046997.2,P
1706765635.1,286046997.5,P
1706765636.0,286046997.5,P
1706765655.8,286046995.0,Y
1706765675.6,286046996.8,P
1706765695.5,286046997.1,P
1706765715.3,286046997.7,P
1706765735.2,286046996.7,Y
1706765755.9,286047001.2,P
1706765775.7,286046998.5,N
1706765795.6,286046999.4,N
1706765815.4,286047001.2,N
1706765835.2,286046999.4,N
1706765855.1,286046997.0,N
1706765856.0,286046997.0,N
1706765875.8,286046997.2,N
1706765895.7,286046995.8,N
1706765915.5,286046996.2,N
1706765935.3,286046993.4,Y
1706765955.2,286046995.7,P
1706765975.0,286046993.3,P
1706765975.9,286046993.3,P
1706765995.8,286046993.6,Y
1706766015.6,286046999.1,P
1706766035.4,286046998.9,N
1706766055.3,286046999.1,N
1706766075.1,286046999.6,N
1706766095.8,286046998.4,N
1706766115.7,286046999.4,N
1706766135.5,286046999.6,N
1706766155.4,286046997.0,N
1706766175.2,286046997.5,N
1706766195.0,286046995.8,Y
1706766195.9,286046995.8,P
1706766215.8,286046997.9,N
1706766235.6,286046995.1,P
1706766255.5,286046996.2,N
1706766275.3,286046993.6,Y
1706766295.1,286046997.4,P
1706766315.9,286046997.6,P
1706766335.7,286046997.9,P
1706766355.6,286046995.6,Y
1706766375.4,286046996.7,P
1706766395.2,286046996.6,P
1706766415.1,286046997.2,P
1706766416.0,286046997.2,Y
1706766435.8,286047001.2,P
1706766455.7,286047000.8,N
1706766475.5,286046998.9,N
1706766495.3,286046999.6,N
1706766515.2,286046996.7,N
1706766535.0,286046996.8,N
1706766535.9,286046996.8,N
1706766555.7,286046997.6,N
1706766575.6,286046997.9,N
1706766595.4,286046995.6,N
1706766615.3,286046993.4,Y
1706766635.1,286046997.5,P
1706766655.8,286046997.9,P
1706766675.7,286046998.0,P
1706766695.5,286046997.7,Y
1706766715.4,286046999.0,P
1706766735.2,286046999.2,N
1706766755.0,286046997.4,P
1706766756.0,286046997.4,Y
1706766775.8,286046999.2,P
1706766795.6,286046996.9,P
1706766815.5,286046996.6,P
1706766835.3,286046997.1,N
1706766855.1,286046997.9,N
1706766875.9,286046997.9,N
1706766895.7,286046996.2,Y
1706766915.6,286046996.9,P
1706766935.4,286046997.6,P
1706766955.2,286046995.0,P
1706766975.1,286046995.0,Y
1706766976.0,286046995.0,P
1706766995.8,286046999.6,N
1706767015.7,286046996.9,N
1706767035.5,286046997.0,N
1706767055.3,286046997.5,N
1706767075.2,286046997.3,N
1706767095.9,286046996.6,N
1706767115.7,286046996.7,N
1706767135.6,286046995.4,Y
1706767155.4,286046999.6,P
1706767175.3,286046996.9,N
1706767195.1,286046999.5,N
1706767196.0,286046999.5,N
